sat.trackr.live / text

‹ back to catalog

STARLINK-35243

NORAD 66016 · 2025-232M

PAYLOAD ACTIVE UNKNOWN

§ Identity

Operator
Country
US
Launch date
2025-10-16
Launch site
AFETR
Launch vehicle
Mass (kg)
RCS (m²)

Purposes: comms

External: N2YO · Heavens-Above · Gunter

§ Orbital elements

Epoch: 2026-09-20T05:31:39.795744Z

Period
93.85 min
Inclination
53.1600°
Eccentricity
0.0001711
Mean motion
15.34400001 rev/d
Perigee alt
461.5 km
Apogee alt
463.9 km
Semi-major
6,840.8 km
B*
6.1498e-4
RAAN
277.2332°
Arg perigee
91.5680°
Mean anomaly
268.5519°
Rev number
5,326

§ Raw data

STARLINK-352431 66016U 25232M   26263.23032171  .00020459  00000+0  61498-3 0  99912 66016  53.1600 277.2332 0001711  91.5680 268.5519 15.34400001 53261

JSON: /api/v1/satellites/66016 · /tle

For live sub-satellite position, see the globe view (requires WebGL).

§ Visibility from observer

Set your observer location to see the next 7 days of passes ≥ 10°. The values pass through the URL so the page stays shareable.

No JS? Fill the form by hand. The geolocation button needs JavaScript.